Tracking 28915 objects as of 30-May-2024
HD Live streaming from Space Station
objects crossing your sky now

OBJECT M

Track OBJECT M now!
10-day predictions
OBJECT M is classified as:


NORAD ID: 59062
Int'l Code: 2024-039M
Perigee: 480.6 km
Apogee: 500.3 km
Inclination: 97.4 °
Period: 94.3 minutes
Semi major axis: 6861 km
RCS: Unknown
Launch date: February 29, 2024
Source: (TBD)
Launch site: VOSTOCHNY COSMODROME (VOSTO)

Uplink (MHz):
Downlink (MHz): 401.200
Beacon (MHz):
Mode: 2k4 GMSK_USP
Call sign:
Status: Unknown


Note: This is a ROCKET BODY
Your satellite tracking list
Your tracking list is empty




NASA's NSSDC Master Catalog

Two Line Element Set (TLE):
1 59062U 24039M   24151.18354088  .00018182  00000-0  67597-3 0  9997
2 59062  97.3911 113.4044 0014364 282.5098  77.4534 15.27483189 13858
Source of the keplerian elements: AFSPC